EHI
0 0 0 0 0 0 0 0 0 0 0 0 0 0 0 1 2 3 4 5 4 3 4 6 4 1 0 0 0 0 0 0 0 0 0 0 0 0 0 0 0 0 0 0
0 0 0 0 0 0 0 0 0 0 0 0 0 0 0 0 1 3 4 4 4 3 3 4 3 1 0 0 0 0 0 0 0 0 0 0 0 0 0 0 0 0 0 0
0 0 0 0 0 0 0 0 0 0 0 0 0 0 0 0 1 2 3 4 4 3 3 2 1 0 0 0 0 0 0 1 1 0 0 0 0 0 0 0 0 0 0 0
0 0 0 0 0 0 0 0 0 0 0 0 0 0 0 0 0 1 1 3 4 4 3 2 2 1 0 0 0 0 0 1 1 0 0 0 0 0 0 0 0 0 0 0
0 0 0 0 0 0 0 0 0 0 0 0 0 0 0 0 0 0 1 2 3 3 4 3 3 2 1 0 0 1 1 1 1 0 0 0 0 0 0 0 0 0 0 0
0 0 0 0 0 0 0 0 0 0 0 0 0 0 0 0 0 0 2 3 3 4 4 4 4 3 1 0 1 2 2 1 0 0 0 0 0 0 0 0 0 0 0 0
0 0 0 0 0 0 0 0 0 0 0 0 0 0 0 0 0 0 2 4 5 5 4 3 4 4 3 2 2 3 2 1 0 0 0 0 0 0 0 0 0 0 0 0
0 0 0 0 0 0 0 0 0 0 0 0 0 0 0 0 0 1 2 4 4 5 5 4 3 4 3 3 3 2 1 0 0 0 0 0 0 0 0 0 0 0 0 0
0 0 0 0 0 0 0 0 0 0 0 0 0 0 0 1 1 1 3 4 4 5 5 4 3 3 3 3 2 1 0 0 0 0 0 0 0 0 0 0 0 0 0 0
0 0 0 0 0 0 0 0 0 0 0 0 0 1 1 1 1 1 2 4 4 4 3 3 2 2 2 1 1 0 0 0 0 0 0 0 0 0 0 0 0 0 0 0
0 0 0 0 0 0 0 0 0 0 0 0 0 1 1 1 0 0 1 2 2 1 1 1 1 1 1 0 0 0 0 0 0 0 0 0 0 0 0 0 0 0 0 0
0 0 0 0 0 0 0 0 0 0 0 0 0 1 1 0 0 0 0 0 0 0 0 0 0 0 0 0 0 0 0 0 0 0 0 0 0 0 0 0 0 0 0 0
0 0 0 0 0 0 0 0 0 0 0 0 0 0 0 0 0 0 0 0 1 1 1 1 0 0 0 0 0 0 0 0 0 0 0 0 0 0 0 0 0 0 0 0
0 0 0 0 0 0 0 0 0 0 0 0 1 1 0 0 0 0 0 1 2 2 2 1 0 0 0 0 0 0 0 0 0 0 0 0 0 0 0 0 0 0 0 0
0 0 0 0 0 0 0 0 0 0 0 0 1 1 0 0 0 0 0 1 2 2 1 1 0 0 0 0 0 0 0 0 0 0 0 0 0 0 0 0 0 0 0 0
0 0 0 0 0 0 0 0 0 0 0 0 1 1 0 0 0 0 0 1 1 1 0 0 0 0 0 0 0 0 0 0 0 0 0 0 0 0 0 0 0 0 0 0
0 0 0 0 0 0 0 0 0 0 0 0 0 0 0 0 0 0 0 0 0 0 0 0 0 0 0 0 0 0 0 0 0 0 0 0 0 0 0 0 0 0 0 0
0 0 0 0 0 0 0 0 0 0 0 0 0 0 0 0 0 0 0 0 0 0 0 0 0 0 0 0 0 0 0 0 0 0 0 0 0 0 0 0 0 0 0 0
0 0 0 0 0 0 0 0 0 0 0 0 0 0 0 0 0 0 0 0 0 0 0 0 0 0 0 0 0 0 0 0 0 0 0 0 0 0 0 0 0 0 0 0
0 0 0 0 0 0 0 0 0 0 0 0 0 0 0 0 0 0 0 0 0 0 0 0 0 0 0 0 0 0 0 0 0 0 0 0 0 0 0 0 0 0 0 0
0 0 0 0 0 0 0 0 0 0 0 0 0 0 0 0 0 0 0 0 0 0 0 0 0 0 0 0 0 0 0 0 0 0 0 0 0 0 0 0 0 0 0 0
0 0 0 0 0 0 0 0 0 0 0 0 0 0 0 0 0 0 0 0 0 0 0 0 0 0 0 0 0 0 0 0 0 0 0 0 0 0 0 0 0 0 0 0
0 0 0 0 0 0 0 0 0 0 0 0 0 0 0 0 0 0 0 0 0 0 0 0 0 0 0 0 0 0 0 0 0 0 0 0 0 0 0 0 0 0 0 0
0 0 0 0 0 0 0 0 0 0 0 0 0 0 0 0 0 0 0 0 0 0 0 0 0 0 0 0 0 0 0 0 0 0 0 0 0 0 0 0 0 0 0 0
0 0 0 0 0 0 0 0 0 0 0 0 0 0 0 0 0 0 0 0 0 0 0 0 0 0 0 0 0 0 0 0 0 0 0 0 0 0 0 0 0 0 0 0
0 0 0 0 0 0 0 0 0 0 0 0 0 0 0 0 0 0 0 0 0 0 0 0 0 0 0 0 0 0 0 0 0 0 0 0 0 0 0 0 0 0 0 0
0 0 0 0 0 0 0 0 0 0 0 0 0 0 0 0 0 0 0 0 0 0 0 0 0 0 0 0 0 0 0 0 0 0 0 0 0 0 0 0 0 0 0 0
Wind_Speed
6 6 5 5 7 8 8 7 6 3 3 4 6 8 10 10 10 10 10 10 10 9 8 8 7 7 6 6 6 6 5 5 4 4 3 2 2 3 3 3 3 3 3 4
7 7 7 7 7 7 7 7 7 5 3 2 4 6 9 11 11 10 10 10 10 10 9 9 9 7 7 6 6 6 6 5 4 4 3 3 3 3 3 2 3 3 3 4
7 6 8 9 8 8 7 6 6 6 3 3 4 6 7 9 10 10 11 10 10 10 10 10 9 9 8 7 6 6 6 6 5 4 4 3 3 3 2 1 2 2 3 3
7 7 9 3 2 4 4 5 5 4 3 3 4 5 5 6 9 9 10 10 9 9 9 9 9 9 8 8 7 7 7 7 5 5 4 3 3 2 1 1 1 1 2 2
6 7 7 4 3 4 5 4 4 3 3 3 5 5 3 5 6 7 8 8 8 8 8 8 9 9 9 8 7 7 7 7 6 5 4 4 3 2 1 1 1 0 1 1
6 7 7 2 1 1 2 3 3 2 2 4 5 4 3 5 6 7 7 7 7 7 8 8 8 8 8 7 7 7 7 6 6 5 5 4 3 2 1 1 1 1 1 1
8 8 6 0 3 3 3 1 1 1 2 4 3 3 4 6 7 6 6 7 7 7 6 6 7 7 7 7 7 7 7 6 6 5 5 4 3 2 1 1 0 1 0 0
8 9 6 1 3 2 1 3 3 2 2 3 3 5 6 7 7 7 6 7 7 6 6 6 7 7 7 6 6 7 6 6 6 5 4 4 3 2 1 1 1 1 1 1
3 1 2 2 3 4 4 3 3 3 3 2 4 6 6 7 7 7 7 6 6 6 6 5 6 6 6 6 7 7 6 6 5 5 4 4 3 3 2 1 1 1 1 1
3 1 1 3 3 3 3 3 3 2 2 2 3 6 6 6 7 7 6 6 6 7 7 6 5 5 6 7 7 7 7 6 5 4 4 3 3 2 2 1 1 1 1 1
4 2 1 1 1 2 2 2 2 1 1 2 3 5 5 5 6 7 6 6 6 7 7 7 6 6 6 7 7 6 6 6 5 4 4 3 3 1 2 2 2 2 1 1
3 2 2 1 1 1 0 0 0 0 1 2 3 4 5 5 5 6 7 6 6 7 7 7 7 6 6 6 6 6 5 5 4 4 3 3 3 2 0 2 2 2 2 2
4 3 3 2 2 2 1 0 0 1 2 3 3 4 4 5 5 6 7 7 7 7 7 7 7 7 6 6 6 6 5 4 3 4 3 3 3 3 2 1 2 3 4 4
2 2 1 2 1 0 1 1 1 1 2 3 3 4 4 5 6 6 6 6 6 6 7 6 6 6 6 6 5 5 4 4 4 3 3 3 3 3 3 3 2 2 4 6
2 2 2 1 1 1 1 1 1 2 2 3 3 4 4 5 5 5 5 5 6 6 6 6 6 6 6 6 5 5 4 3 3 3 3 3 2 2 2 3 2 2 2 2
3 2 2 2 2 2 2 2 2 2 2 3 3 3 4 4 4 4 5 5 6 6 6 6 6 6 6 6 5 4 3 5 4 3 3 2 2 2 2 2 2 2 2 2
3 3 2 2 3 3 3 2 2 2 2 3 3 3 3 4 4 4 4 4 4 4 4 4 5 6 6 6 5 4 3 4 6 4 3 2 2 2 2 2 2 2 2 2
4 4 3 3 2 2 2 2 2 2 2 2 3 3 4 4 4 4 4 4 4 3 3 3 4 5 5 5 4 3 3 3 3 3 2 2 2 2 2 2 2 2 2 2
3 3 2 2 3 3 3 3 2 2 2 3 3 3 3 3 3 4 4 4 4 4 4 4 5 5 5 5 4 3 3 3 3 3 3 3 3 2 2 2 2 2 2 2
2 2 2 2 2 2 2 2 2 2 2 3 3 3 3 3 3 4 4 3 3 3 3 4 5 4 4 5 5 3 3 4 4 3 3 3 3 3 2 2 2 2 2 2
2 1 1 1 1 1 1 2 2 2 2 3 3 3 3 3 3 3 3 2 2 3 3 5 4 3 3 4 4 3 3 3 3 3 3 3 3 3 3 3 3 3 3 3
2 1 1 1 0 0 0 1 1 2 2 2 2 3 2 2 2 2 2 2 2 4 3 2 2 3 4 4 3 3 3 3 3 3 3 3 3 3 3 3 3 3 3 3
1 1 1 1 1 1 0 0 1 1 2 2 2 2 2 2 2 2 2 1 2 3 2 2 3 5 5 3 3 3 3 3 3 3 3 3 3 3 3 3 3 3 3 3
2 1 1 1 1 1 1 0 0 1 1 1 2 2 2 2 1 1 2 4 4 4 2 3 4 5 4 2 2 3 3 3 2 2 2 3 3 3 3 3 3 3 3 3
2 2 1 1 1 1 1 1 1 2 2 2 2 2 2 2 2 2 2 3 4 3 1 3 4 4 3 3 3 3 2 2 2 2 3 3 3 3 3 2 2 2 2 2
2 1 1 0 0 0 0 1 1 2 2 2 2 2 2 2 3 2 2 2 3 2 1 1 2 3 2 2 2 2 2 2 2 2 3 3 2 2 2 2 3 2 2 3
1 1 0 1 1 1 1 1 1 1 1 2 2 2 2 2 2 2 2 1 1 1 0 0 1 1 1 1 1 1 1 1 1 1 2 1 1 1 1 2 2 2 2 3
Wind_Direction
247 261 245 238 230 228 238 250 262 253 208 186 172 163 158 157 157 156 159 160 159 159 158 158 159 159 155 148 144 143 141 138 135 123 115 107 92 81 55 34 37 49 49 46
250 244 245 245 244 241 240 247 250 250 239 196 168 161 159 161 161 161 163 165 165 164 162 163 161 156 150 149 151 148 144 138 125 119 115 103 92 83 68 44 31 36 53 55
260 247 245 245 238 233 235 236 238 244 223 176 176 163 164 163 163 166 167 168 168 168 168 168 165 159 156 157 155 149 140 132 130 127 120 113 102 91 89 67 46 32 46 64
261 258 254 248 224 219 234 249 241 239 199 180 169 149 148 153 160 167 165 166 168 170 167 168 163 159 158 158 156 151 141 138 137 133 132 128 116 114 130 113 89 64 59 68
261 260 259 243 217 214 218 240 249 245 199 167 155 135 148 146 154 161 161 161 163 165 162 163 159 158 158 159 155 146 141 143 141 138 138 136 134 149 173 124 105 113 120 114
254 259 262 247 129 102 227 240 237 225 170 157 161 171 173 153 147 142 144 144 147 153 156 156 154 153 158 159 153 147 144 143 140 141 142 145 149 158 151 120 159 180 148 163
250 257 266 230 121 141 207 270 72 98 138 149 174 163 141 134 134 129 129 135 139 146 149 149 148 150 157 153 150 143 138 137 138 141 148 150 147 148 143 146 192 289 215 202
234 242 247 156 153 192 48 49 41 53 91 121 123 107 116 123 124 125 126 132 136 139 135 137 144 149 150 145 137 130 131 133 139 147 156 147 139 151 156 161 195 266 279 269
241 230 76 70 75 46 38 39 32 39 52 91 118 119 119 124 128 131 136 136 133 132 129 131 138 146 145 137 131 132 134 140 146 148 145 141 146 161 170 179 203 231 225 242
252 240 83 68 55 39 34 33 31 42 55 91 123 126 129 135 140 143 145 142 137 138 140 141 140 137 134 134 138 143 149 152 151 154 153 148 149 161 166 183 208 246 261 261
274 289 329 63 32 30 30 22 26 55 81 119 130 137 144 149 148 147 145 145 146 149 148 146 141 136 136 144 149 152 155 156 157 156 155 153 147 150 169 179 186 198 222 242
263 273 272 271 94 74 62 356 327 144 134 132 137 141 143 147 146 145 147 148 151 151 152 153 150 146 144 148 155 158 159 160 157 154 154 155 152 146 59 188 174 173 183 200
293 327 347 9 38 41 21 25 262 197 160 147 143 142 145 146 145 146 150 156 161 159 157 155 152 152 154 156 159 162 159 157 152 154 159 167 171 174 192 236 238 236 231 226
322 333 326 341 318 30 320 282 202 181 154 146 143 141 141 146 148 154 159 160 157 153 155 154 154 158 159 159 160 160 153 154 152 154 160 176 188 195 196 196 213 236 238 230
297 302 297 310 300 197 208 183 148 142 135 134 133 139 144 149 152 153 150 147 146 151 157 157 159 161 156 156 159 160 153 155 156 157 169 184 193 203 210 213 213 210 198 227
265 253 255 255 248 232 212 201 176 163 143 134 141 145 145 142 137 138 141 147 155 165 168 165 165 158 152 151 158 162 164 168 163 165 179 189 195 203 213 218 221 216 215 204
238 235 228 225 224 225 216 211 193 183 171 154 150 142 139 133 132 138 144 150 153 157 159 161 157 151 155 159 165 168 163 170 179 183 187 193 196 200 210 219 228 227 220 205
248 244 236 229 224 218 208 210 206 192 179 161 151 149 148 150 155 156 154 150 148 154 164 159 148 151 159 163 164 162 165 174 184 184 185 192 196 205 214 223 230 231 223 216
250 250 246 238 230 224 214 209 207 198 182 171 169 168 165 163 160 160 157 159 168 179 182 164 161 167 167 171 169 172 177 181 187 194 190 193 206 215 218 223 228 227 225 227
273 270 267 256 234 227 218 202 196 199 197 183 172 171 177 172 166 168 169 175 182 179 165 157 167 177 172 168 172 183 191 193 196 196 196 197 208 217 221 229 231 234 239 239
286 273 282 290 270 227 238 210 194 195 194 179 179 181 184 183 174 165 164 175 172 150 150 161 175 175 165 161 175 191 196 195 196 195 199 203 210 218 224 231 236 239 244 247
279 263 267 288 273 205 235 219 185 181 182 177 177 176 175 171 163 161 160 161 141 133 143 163 172 162 159 157 181 198 203 205 205 203 206 208 213 218 222 228 237 243 244 245
277 232 225 252 259 266 299 180 159 163 168 171 171 173 173 165 160 159 158 119 120 132 139 153 149 153 159 167 188 201 207 212 214 213 213 217 221 222 226 231 236 241 246 250
291 269 247 238 218 211 212 214 133 113 113 128 149 150 140 123 110 100 110 120 111 121 123 147 160 168 176 199 202 207 209 210 213 221 226 228 232 233 235 234 239 244 250 259
289 277 255 232 219 186 187 165 117 98 89 82 80 84 88 94 103 101 101 114 127 130 139 160 175 191 205 221 217 211 205 205 215 226 230 234 236 237 238 238 240 248 255 262
301 300 302 310 29 99 157 139 128 112 105 92 77 75 76 79 82 81 89 111 123 134 146 159 182 200 222 228 220 213 207 212 228 232 235 237 240 247 253 252 256 258 267 271
331 341 24 68 52 53 79 91 104 107 108 111 95 78 76 81 86 89 86 86 103 132 159 157 171 193 229 224 224 227 221 216 228 242 249 251 252 252 263 276 281 281 280 276